This is the latest recevied weather packets stored in our database for station/object K5OLV. If no packets are shown the sender has not sent any weather packets the latest 10 day(s).
| Time | Temp. | Humidity | Pressure | Rain* | Wind** | Luminosity | Snow |
|---|---|---|---|---|---|---|---|
| 1788125389 | 28.33° C | 72% | 1017.9 hPa | 0 mm | - | 116 W/m² | - |
| 1788125084 | 28.89° C | 72% | 1017.9 hPa | 0 mm | - | 94 W/m² | - |
| 1788124783 | 30° C | 67% | 1017.8 hPa | 0 mm | - | 144 W/m² | - |
| 1788124478 | 30.56° C | 65% | 1017.8 hPa | 0 mm | - | 425 W/m² | - |
| 1788124174 | 30.56° C | 65% | 1017.8 hPa | 0 mm | - | 428 W/m² | - |
| 1788123874 | 30° C | 66% | 1017.8 hPa | 0 mm | - | 442 W/m² | - |
| 1788123572 | 28.89° C | 68% | 1017.9 hPa | 0 mm | - | 416 W/m² | - |
| 1788123270 | 28.89° C | 71% | 1018 hPa | 0 mm | - | 199 W/m² | - |
| 1788122966 | 29.44° C | 69% | 1018.2 hPa | 0 mm | - | 86 W/m² | - |
| 1788122665 | 30.56° C | 66% | 1018 hPa | 0 mm | - | 252 W/m² | - |
| 1788122360 | 30.56° C | 63% | 1018.2 hPa | 0 mm | - | 422 W/m² | - |
| 1788122057 | 30.56° C | 65% | 1018.1 hPa | 0 mm | - | 488 W/m² | - |
| 1788121756 | 29.44° C | 67% | 1018.2 hPa | 0 mm | - | 517 W/m² | - |
| 1788121451 | 30° C | 65% | 1018.2 hPa | 0 mm | - | 540 W/m² | - |
| 1788121147 | 29.44° C | 65% | 1018.3 hPa | 0 mm | - | 149 W/m² | - |
| 1788120840 | 30° C | 67% | 1018.3 hPa | 0 mm | - | 572 W/m² | - |
| 1788120536 | 30° C | 69% | 1018.6 hPa | 0 mm | - | 516 W/m² | - |
| 1788120235 | 28.89° C | 71% | 1018.5 hPa | 0 mm | - | 584 W/m² | - |
| 1788119925 | 28.33° C | 71% | 1018.4 hPa | 0 mm | - | 90 W/m² | - |
| 1788119624 | 30° C | 69% | 1018.6 hPa | 0 mm | - | 100 W/m² | - |
| 1788119323 | 30° C | 67% | 1018.5 hPa | 0 mm | - | 608 W/m² | - |
| 1788119016 | 29.44° C | 68% | 1018.7 hPa | 0 mm | - | 630 W/m² | - |
| 1788118712 | 29.44° C | 70% | 1018.8 hPa | 0 mm | - | 628 W/m² | - |
| 1788118406 | 28.89° C | 70% | 1018.8 hPa | 0 mm | - | 632 W/m² | - |
| 1788118102 | 27.78° C | 75% | 1018.8 hPa | 0 mm | - | 650 W/m² | - |
* Rain latest hour (hover to see other rain measurements)
** Current wind speed in m/s (hover to see current wind gust speed)